[[{"header":{"parameterUnit":"m.s-1","parameterCategory":1,"la1":30.2991,"la2":30.254,"lo1":-89.0895,"lo2":-89.0444,"dy":0.0017,"dx":0.0017,"nx":28,"ny":28,"refTime":"2024-05-02T09:00:00:Z","depth":0,"parameterNumber":2,"parameterNumberName":"U-component_of_WINDS"},"data":[0,0,0,0,0,0,0,0,0,0,0,0,0,0,0,0,0,0,0,0,0,0,0,0,0,0,0,0,0,0,0,0,0,0,0,0,0,0,0,0,0,0,0,0,0,0,0,0,0,0,0,0,0,0,0,0,0,0,-2.1723,-2.1724,0,-2.1795,-2.1796,-2.1797,-2.1813,-2.1813,-2.1812,-2.1812,-2.1884,-2.1886,-2.1889,0,0,0,0,0,0,0,0,0,0,0,0,0,-2.1599,-2.1601,-2.1723,-2.1724,-2.1725,-2.1795,-2.1796,-2.1797,-2.1813,-2.1813,-2.1812,-2.1811,-2.1883,-2.1886,-2.1889,0,0,0,0,0,0,0,0,0,0,0,0,0,-2.166,-2.1602,-2.1723,-2.1741,-2.1744,-2.1795,-2.1796,-2.1797,-2.1813,-2.1813,-2.1812,-2.1811,-2.1882,-2.1886,-2.1889,-2.1926,0,0,-2.19,-2.1902,0,0,0,0,0,0,0,0,-2.1656,-2.1664,-2.1738,-2.174,-2.1743,-2.1794,-2.1779,-2.1841,-2.1814,-2.1787,-2.1812,-2.1811,-2.1855,-2.186,-2.1876,-2.193,-2.1933,-2.19,-2.1903,-2.1904,-2.1905,0,0,0,0,0,0,0,-2.1652,-2.1661,-2.1752,-2.1739,-2.1742,-2.1746,-2.1754,-2.1791,-2.1824,-2.1789,-2.179,-2.1799,-2.1856,-2.1872,-2.1877,-2.1934,-2.19,-2.1904,-2.1906,-2.1907,-2.2023,-2.2024,0,0,0,0,0,0,-2.1645,-2.1658,-2.1749,-2.1754,-2.1697,-2.1749,-2.1758,-2.1779,-2.1824,-2.183,-2.1799,-2.1799,-2.1866,-2.1873,-2.188,-2.1926,-2.1904,-2.1908,-2.191,-2.2022,-2.2023,-2.2024,0,0,0,0,0,0,-2.1642,-2.1653,-2.1746,-2.1706,-2.1718,-2.1752,-2.1775,-2.178,-2.1797,-2.1832,-2.1837,-2.181,-2.1866,-2.1875,-2.1915,-2.1929,-2.1909,-2.1912,-2.2021,-2.2022,-2.2024,-2.2019,0,0,0,0,0,0,-2.1638,-2.1652,-2.1666,-2.1706,-2.1721,-2.178,-2.1776,-2.1782,-2.1803,-2.1804,-2.1843,-2.1849,-2.1866,-2.191,-2.1919,-2.1934,-2.1915,-2.202,-2.2021,-2.2023,-2.2018,-2.202,-2.2022,0,0,0,0,0,-2.1634,-2.1662,-2.1667,-2.1678,-2.1739,-2.1781,-2.1789,-2.1809,-2.1804,-2.1819,-2.1841,-2.1847,-2.1927,-2.1913,-2.1924,-2.194,-2.2019,-2.2021,-2.2023,-2.2017,-2.202,-2.2022,0,0,0,0,0,0,-2.1622,-2.1667,-2.1673,-2.1715,-2.1744,-2.1784,-2.1803,-2.1811,-2.1841,-2.1841,-2.1864,-2.1873,-2.1911,-2.193,-2.1915,-2.1979,-2.1972,-2.1977,-2.1965,-2.1967,-2.1969,-2.1963,-2.1918,0,0,0,0,0,-2.1624,-2.1654,-2.1693,-2.1726,-2.174,-2.1769,-2.1788,-2.1801,-2.1832,-2.1844,-2.1869,-2.1898,-2.193,-2.195,-2.1981,-2.2022,-2.203,-2.2038,-2.204,-2.2042,-2.2044,-2.2067,-2.2071,-2.2031,-2.2031,-2.2031,0,0,-2.1629,-2.1657,-2.1675,-2.1724,-2.1748,-2.1778,-2.1779,-2.1811,-2.1834,-2.1848,-2.1888,-2.1908,-2.1942,-2.1982,-2.2002,-2.1999,-2.2058,-2.2044,-2.2045,-2.2047,-2.207,-2.2073,-2.2077,-2.2032,-2.2032,-2.2032,0,0,-2.1652,-2.1678,-2.1708,-2.1732,-2.1769,-2.1788,-2.1795,-2.1834,-2.1848,-2.1888,-2.19,-2.1927,-2.1981,-2.2005,-2.2024,-2.2059,-2.2065,-2.2068,-2.2077,-2.21,-2.2103,-2.2106,-2.2117,-2.2121,-2.2071,-2.2071,-2.2071,0,-2.1653,-2.17,-2.1722,-2.1754,-2.1775,-2.1791,-2.1821,-2.1844,-2.1889,-2.1903,-2.19,-2.1968,-2.1992,-2.2039,-2.2047,-2.2063,-2.2071,-2.2063,-2.2101,-2.2104,-2.2107,-2.2118,-2.2122,-2.2071,-2.2071,-2.2071,-2.2071,0,-2.1699,-2.1731,-2.1751,-2.1794,-2.1818,-2.1849,-2.1876,-2.1897,-2.1909,-2.1928,-2.1969,-2.1999,-2.2036,-2.2049,-2.206,-2.2097,-2.2094,-2.2096,-2.209,-2.211,-2.2121,-2.2126,-2.2071,-2.2071,-2.2071,-2.2071,0,0,-2.1715,-2.1771,-2.1778,-2.1798,-2.184,-2.1865,-2.1898,-2.1935,-2.1952,-2.1983,-2.201,-2.2056,-2.2058,-2.208,-2.2094,-2.2114,-2.2139,-2.2113,-2.2114,-2.2116,-2.218,-2.2178,-2.2183,-2.2144,-2.2145,-2.2146,-2.2177,0,-2.1743,-2.18,-2.1822,-2.1869,-2.1899,-2.1915,-2.1943,-2.1972,-2.1992,-2.202,-2.2042,-2.2074,-2.2074,-2.2088,-2.2108,-2.2131,-2.2152,-2.213,-2.2169,-2.217,-2.2158,-2.2188,-2.2186,-2.2214,-2.2182,-2.2182,-2.2183,0,-2.1783,-2.1814,-2.1864,-2.1903,-2.1917,-2.1942,-2.1978,-2.2005,-2.2038,-2.2051,-2.2076,-2.209,-2.2124,-2.2117,-2.2164,-2.2149,-2.2166,-2.218,-2.2182,-2.2185,-2.2176,-2.2191,-2.2223,-2.2227,-2.219,-2.219,-2.2189,0,-2.1788,-2.1843,-2.1881,-2.1897,-2.1944,-2.1961,-2.1981,-2.2014,-2.2035,-2.2067,-2.2081,-2.2116,-2.2135,-2.2162,-2.2184,-2.2178,-2.2229,-2.2225,-2.224,-2.224,-2.2249,-2.2248,-2.2283,-2.2263,-2.2263,-2.2263,-2.2263,0,-2.1816,-2.1846,-2.1884,-2.1906,-2.194,-2.1965,-2.1998,-2.202,-2.2049,-2.2076,-2.2093,-2.2118,-2.2147,-2.2176,-2.2194,-2.223,-2.2239,-2.225,-2.2254,-2.2247,-2.2246,-2.2258,-2.2256,-2.2264,-2.2264,-2.2263,-2.2263,0,-2.1827,-2.1854,-2.1895,-2.1936,-2.1948,-2.1971,-2.2006,-2.2029,-2.205,-2.2084,-2.2093,-2.2126,-2.2161,-2.2187,-2.2232,-2.2244,-2.2282,-2.2287,-2.2271,-2.2273,-2.2287,-2.2285,-2.233,-2.2337,-2.2313,-2.2313,-2.2313,0,-2.1842,-2.1866,-2.191,-2.1929,-2.1949,-2.1981,-2.2003,-2.2029,-2.2051,-2.2091,-2.2109,-2.2145,-2.2175,-2.223,-2.2258,-2.2293,-2.2298,-2.2312,-2.2303,-2.2296,-2.2297,-2.2295,-2.2297,-2.2312,-2.2312,-2.2312,-2.2312,0,-2.1866,-2.1879,-2.191,-2.1946,-2.1971,-2.2001,-2.203,-2.2046,-2.2077,-2.2101,-2.2137,-2.2161,-2.2207,-2.2243,-2.2281,-2.2301,-2.2312,-2.2315,-2.2321,-2.2313,-2.2302,-2.2308,-2.2273,-2.2314,-2.2313,-2.2313,-2.2313,-2.2313,-2.1879,-2.1901,-2.1935,-2.1969,-2.1995,-2.2022,-2.2046,-2.207,-2.2101,-2.2141,-2.2155,-2.2192,-2.2225,-2.2277,-2.2299,-2.2328,-2.2328,-2.2336,-2.2337,-2.2339,-2.2338,-2.2299,-2.2335,-2.2335,-2.2335,-2.2335,-2.2335,0,-2.1904,-2.1927,-2.1958,-2.1999,-2.2026,-2.2035,-2.2069,-2.209,-2.2123,-2.2154,-2.2183,-2.2225,-2.226,-2.2291,-2.2328,-2.2345,-2.2351,-2.2354,-2.2352,-2.2356,-2.2336,-2.2328,-2.2348,-2.2348,-2.2348,-2.2348,-2.2348,-2.2348,-2.1919,-2.1956,-2.1972,-2.2022,-2.2045,-2.2082,-2.21,-2.2126,-2.215,-2.2196,-2.2226,-2.2246,-2.2277,-2.2316,-2.2348,-2.2357,-2.2369,-2.237,-2.2379,-2.236,-2.2358,-2.2356,-2.2348,-2.2373,-2.2373,-2.2397,-2.2397,-2.2397]},{"header":{"parameterUnit":"m.s-1","parameterCategory":1,"la1":30.2991,"la2":30.254,"lo1":-89.0895,"lo2":-89.0444,"dy":0.0017,"dx":0.0017,"nx":28,"ny":28,"refTime":"2024-05-02T09:00:00:Z","depth":0,"parameterNumber":3,"parameterNumberName":"V-component_of_WINDS"},"data":[0,0,0,0,0,0,0,0,0,0,0,0,0,0,0,0,0,0,0,0,0,0,0,0,0,0,0,0,0,0,0,0,0,0,0,0,0,0,0,0,0,0,0,0,0,0,0,0,0,0,0,0,0,0,0,0,0,0,3.0872,3.0872,0,3.0902,3.0903,3.0903,3.0895,3.0894,3.0893,3.0893,3.0921,3.0922,3.0924,0,0,0,0,0,0,0,0,0,0,0,0,0,3.0805,3.0806,3.0872,3.0872,3.0873,3.0902,3.0903,3.0903,3.0895,3.0894,3.0893,3.0893,3.0921,3.0922,3.0924,0,0,0,0,0,0,0,0,0,0,0,0,0,3.0834,3.0807,3.0872,3.0872,3.0872,3.0902,3.0903,3.0903,3.0895,3.0894,3.0893,3.0892,3.092,3.0922,3.0924,3.0954,0,0,3.093,3.0931,0,0,0,0,0,0,0,0,3.0833,3.0837,3.0872,3.0872,3.0873,3.0894,3.0889,3.092,3.0895,3.0886,3.0893,3.0892,3.0913,3.0915,3.0923,3.0956,3.0957,3.093,3.0931,3.0932,3.0933,0,0,0,0,0,0,0,3.0831,3.0836,3.0884,3.0872,3.0873,3.087,3.0873,3.0895,3.0904,3.0887,3.0886,3.089,3.0913,3.0921,3.0923,3.0957,3.093,3.0932,3.0933,3.0934,3.1018,3.1019,0,0,0,0,0,0,3.0829,3.0834,3.0883,3.0885,3.085,3.0872,3.0876,3.0888,3.0904,3.0905,3.0891,3.089,3.0918,3.0921,3.0924,3.0962,3.0932,3.0934,3.0935,3.1017,3.1018,3.1019,0,0,0,0,0,0,3.0827,3.0833,3.0882,3.0859,3.0865,3.0874,3.0888,3.0889,3.0897,3.0907,3.0908,3.0898,3.0917,3.0921,3.0947,3.0962,3.0935,3.0937,3.1016,3.1017,3.1019,3.1036,0,0,0,0,0,0,3.0825,3.0833,3.0845,3.086,3.0866,3.0905,3.0889,3.089,3.0901,3.09,3.0914,3.0915,3.0917,3.0945,3.0949,3.0965,3.0938,3.1014,3.1017,3.1018,3.1034,3.1038,3.1041,0,0,0,0,0,3.0823,3.0847,3.0845,3.0851,3.0882,3.0906,3.0909,3.0912,3.0902,3.0914,3.0921,3.0915,3.096,3.0947,3.0953,3.0969,3.1013,3.1016,3.1018,3.1033,3.1037,3.1041,0,0,0,0,0,0,3.0832,3.0849,3.0847,3.0877,3.089,3.0904,3.0919,3.0916,3.0932,3.093,3.0931,3.0934,3.0961,3.0968,3.0953,3.1,3.0985,3.0989,3.0994,3.0999,3.1003,3.1,3.094,0,0,0,0,0,3.0838,3.0857,3.087,3.0895,3.0902,3.091,3.092,3.0921,3.0934,3.0939,3.0948,3.096,3.0978,3.0989,3.1005,3.1035,3.1039,3.1049,3.1053,3.1056,3.1059,3.1076,3.1081,3.1027,3.1027,3.1027,0,0,3.0849,3.0861,3.0872,3.0897,3.0908,3.0927,3.0914,3.0934,3.0949,3.0942,3.0968,3.0974,3.0988,3.1017,3.103,3.1023,3.1074,3.1059,3.1061,3.1062,3.1079,3.1084,3.1089,3.1029,3.1029,3.1028,0,0,3.088,3.0891,3.0913,3.0925,3.0941,3.0946,3.0952,3.0967,3.0971,3.0997,3.0993,3.101,3.1039,3.105,3.1059,3.1096,3.1092,3.1101,3.112,3.1137,3.1141,3.1145,3.1159,3.1164,3.1104,3.1104,3.1104,0,3.0892,3.0921,3.0925,3.0947,3.0958,3.0955,3.0978,3.0988,3.1008,3.1016,3.1008,3.1046,3.1055,3.1087,3.1096,3.1104,3.111,3.1099,3.1141,3.1144,3.1148,3.1161,3.1166,3.1106,3.1105,3.1105,3.1105,0,3.0936,3.0956,3.0972,3.0994,3.1007,3.1029,3.1036,3.1049,3.1049,3.1055,3.1082,3.1093,3.1112,3.112,3.112,3.1152,3.1147,3.114,3.1126,3.1154,3.1167,3.1171,3.1107,3.1107,3.1106,3.1106,0,0,3.0971,3.0997,3.1002,3.1013,3.1032,3.1047,3.1069,3.109,3.1101,3.1115,3.1134,3.116,3.1154,3.1165,3.1166,3.1181,3.121,3.1172,3.1172,3.1179,3.1247,3.1253,3.1258,3.1208,3.1209,3.1209,3.1246,0,3.1004,3.1044,3.1049,3.1085,3.1104,3.1102,3.1122,3.1135,3.1142,3.1159,3.1166,3.1184,3.1175,3.1181,3.1196,3.1204,3.1224,3.1201,3.1225,3.1226,3.1221,3.1265,3.127,3.1304,3.1251,3.1252,3.1253,0,3.1047,3.1065,3.1103,3.1121,3.1129,3.1147,3.1166,3.1183,3.1198,3.1202,3.1215,3.1214,3.1237,3.1223,3.1254,3.1238,3.1249,3.1254,3.1255,3.1257,3.1241,3.1268,3.1315,3.1321,3.126,3.1259,3.1259,0,3.107,3.1104,3.1131,3.114,3.1161,3.1174,3.1183,3.1198,3.121,3.1227,3.1235,3.1254,3.1264,3.1278,3.1283,3.1272,3.1315,3.13,3.1318,3.1318,3.1327,3.1326,3.1376,3.1334,3.1334,3.1333,3.1333,0,3.1106,3.113,3.1142,3.1159,3.1185,3.1191,3.1216,3.1225,3.1239,3.1257,3.1256,3.1273,3.1278,3.1296,3.13,3.1326,3.133,3.1334,3.1334,3.1334,3.1334,3.134,3.1338,3.1335,3.1334,3.1334,3.1334,0,3.1136,3.1145,3.1175,3.1194,3.1199,3.1218,3.1233,3.1249,3.1256,3.128,3.1285,3.1296,3.1317,3.1324,3.1349,3.1351,3.1382,3.138,3.1377,3.1377,3.1395,3.1393,3.1451,3.1459,3.1411,3.1411,3.1412,0,3.1158,3.1177,3.1198,3.1211,3.1221,3.1241,3.1255,3.1261,3.1275,3.1295,3.1309,3.133,3.1347,3.1381,3.1391,3.141,3.1409,3.1428,3.1412,3.1411,3.141,3.1409,3.1411,3.1431,3.1432,3.1432,3.1432,0,3.1197,3.1202,3.1221,3.1243,3.1259,3.1276,3.1292,3.1303,3.1311,3.1327,3.1349,3.1363,3.139,3.1411,3.1431,3.144,3.1438,3.1438,3.1443,3.1442,3.144,3.1442,3.1385,3.1436,3.1436,3.1436,3.1435,3.1435,3.1224,3.1241,3.1259,3.1281,3.1295,3.131,3.1327,3.1337,3.1356,3.138,3.1382,3.1407,3.1423,3.145,3.146,3.1479,3.1473,3.148,3.1482,3.1484,3.1486,3.1437,3.1482,3.1482,3.1482,3.1482,3.1482,0,3.1263,3.1276,3.1296,3.132,3.1338,3.1336,3.1354,3.1369,3.1391,3.1406,3.1424,3.1451,3.1472,3.1484,3.1505,3.1518,3.1517,3.1523,3.1522,3.1524,3.1489,3.1483,3.1523,3.1523,3.1523,3.1523,3.1523,3.1523,3.1286,3.1315,3.1321,3.1357,3.1368,3.1393,3.1404,3.1419,3.1432,3.1462,3.148,3.1488,3.1502,3.1525,3.1544,3.1547,3.1555,3.1561,3.1564,3.1531,3.1527,3.1522,3.1516,3.1563,3.1563,3.1597,3.1597,3.1597]}]]